When you browse on this site, cookies collect data to enhance your experience and personalize the content and advertising you see.
Visit our Privacy Policy to learn more. By continuing to use the site, you agree to this use of cookies and data.
  • In Portugal
  • List of Countries
  • For 7 days
  • Water Temperature
  • Weather Map
  • Weather Widgets
  • user-avatar
    Login

    Hourly Weather Kitzbuhel

    Today, 25 August, Sunday

    Time Temperature Precipitation Wind Pressure Humidity
    00:00 +15°C° 0 mm 1 mps 680 mmHg 88%
    01:00 +15°C° 0 mm 1 mps 680 mmHg 87%
    02:00 +14°C° 0 mm 1 mps 680 mmHg 87%
    03:00 +14°C° 0 mm 1 mps 680 mmHg 87%
    04:00 +14°C° 0 mm 1 mps 680 mmHg 86%
    05:00 +15°C° 0 mm 1 mps 680 mmHg 84%
    06:00 +16°C° 0 mm 1 mps 680 mmHg 82%
    07:00 +18°C° 0 mm 1 mps 681 mmHg 80%
    08:00 +20°C° 0 mm 1 mps 681 mmHg 73%
    09:00 +22°C° 0 mm 1 mps 682 mmHg 65%
    10:00 +25°C° 0 mm 1 mps 682 mmHg 57%
    11:00 +25°C° 0.3 mm 1 mps 682 mmHg 56%
    12:00 +25°C° 0.3 mm 1 mps 682 mmHg 56%
    13:00 +26°C° 0.3 mm 2 mps 682 mmHg 55%
    14:00 +25°C° 1.1 mm 1 mps 682 mmHg 64%
    15:00 +24°C° 1.1 mm 1 mps 681 mmHg 74%
    16:00 +22°C° 1.1 mm 1 mps 681 mmHg 83%
    17:00 +21°C° 1.9 mm 1 mps 681 mmHg 86%
    18:00 +20°C° 1.9 mm 1 mps 680 mmHg 90%
    19:00 +18°C° 1.9 mm 1 mps 680 mmHg 94%
    20:00 +18°C° 0.4 mm 1 mps 680 mmHg 93%
    21:00 +18°C° 0.4 mm 1 mps 681 mmHg 93%
    22:00 +16°C° 0.4 mm 1 mps 681 mmHg 93%
    23:00 +16°C° 0 mm 1 mps 681 mmHg 92%

    Tomorrow, 26 August, Monday

    Time Temperature Precipitation Wind Pressure Humidity
    00:00 +16°C° 0 mm 1 mps 681 mmHg 91%
    01:00 +15°C° 0 mm 1 mps 680 mmHg 90%
    02:00 +15°C° 0 mm 1 mps 680 mmHg 91%
    03:00 +15°C° 0 mm 1 mps 680 mmHg 91%
    04:00 +14°C° 0 mm 1 mps 680 mmHg 91%
    05:00 +15°C° 0 mm 1 mps 680 mmHg 89%
    06:00 +16°C° 0 mm 1 mps 680 mmHg 87%
    07:00 +18°C° 0 mm 1 mps 681 mmHg 86%
    08:00 +20°C° 0.1 mm 1 mps 681 mmHg 77%
    09:00 +23°C° 0.1 mm 1 mps 681 mmHg 68%
    10:00 +25°C° 0.1 mm 1 mps 682 mmHg 59%
    11:00 +26°C° 0.5 mm 1 mps 682 mmHg 58%
    12:00 +26°C° 0.5 mm 1 mps 681 mmHg 58%
    13:00 +26°C° 0.5 mm 1 mps 681 mmHg 57%
    14:00 +25°C° 1.4 mm 1 mps 681 mmHg 65%
    15:00 +25°C° 1.4 mm 1 mps 680 mmHg 72%
    16:00 +24°C° 1.4 mm 1 mps 680 mmHg 80%
    17:00 +22°C° 1.5 mm 1 mps 680 mmHg 84%
    18:00 +21°C° 1.5 mm 1 mps 680 mmHg 87%
    19:00 +17°C° 1.5 mm 0 mps 679 mmHg 91%
    20:00 +19°C° 0.2 mm 1 mps 680 mmHg 91%
    21:00 +18°C° 0.2 mm 1 mps 680 mmHg 91%
    22:00 +18°C° 0.2 mm 1 mps 680 mmHg 90%
    23:00 +16°C° 0 mm 1 mps 680 mmHg 90%

    Day after tomorrow, 27 August, Tuesday

    Time Temperature Precipitation Wind Pressure Humidity
    00:00 +16°C° 0 mm 1 mps 680 mmHg 90%
    01:00 +15°C° 0 mm 1 mps 679 mmHg 90%
    02:00 +15°C° 0 mm 1 mps 679 mmHg 90%
    03:00 +15°C° 0 mm 1 mps 679 mmHg 90%
    04:00 +15°C° 0 mm 1 mps 679 mmHg 90%
    05:00 +16°C° 0 mm 1 mps 680 mmHg 88%
    06:00 +18°C° 0 mm 1 mps 680 mmHg 87%
    07:00 +19°C° 0 mm 1 mps 680 mmHg 86%
    08:00 +21°C° 0 mm 1 mps 681 mmHg 76%
    09:00 +24°C° 0 mm 1 mps 681 mmHg 66%
    10:00 +26°C° 0 mm 1 mps 682 mmHg 56%
    11:00 +27°C° 0 mm 1 mps 682 mmHg 50%
    12:00 +28°C° 0 mm 1 mps 682 mmHg 44%
    13:00 +28°C° 0 mm 1 mps 682 mmHg 37%
    14:00 +28°C° 0.1 mm 1 mps 682 mmHg 41%
    15:00 +27°C° 0.1 mm 1 mps 681 mmHg 44%
    16:00 +27°C° 0.1 mm 1 mps 681 mmHg 47%
    17:00 +24°C° 0 mm 1 mps 680 mmHg 61%
    18:00 +22°C° 0 mm 1 mps 680 mmHg 74%
    19:00 +17°C° 0 mm 0 mps 680 mmHg 87%
    20:00 +19°C° 0.1 mm 1 mps 680 mmHg 87%
    21:00 +19°C° 0.1 mm 1 mps 680 mmHg 86%
    22:00 +18°C° 0.1 mm 1 mps 680 mmHg 86%
    23:00 +18°C° 0 mm 1 mps 680 mmHg 85%

    28 August, Wednesday

    Time Temperature Precipitation Wind Pressure Humidity
    00:00 +18°C° 0 mm 1 mps 680 mmHg 85%
    01:00 +16°C° 0 mm 2 mps 679 mmHg 84%
    02:00 +16°C° 0 mm 2 mps 679 mmHg 84%
    03:00 +16°C° 0 mm 1 mps 679 mmHg 83%
    04:00 +16°C° 0 mm 1 mps 679 mmHg 82%
    05:00 +16°C° 0 mm 1 mps 679 mmHg 81%
    06:00 +18°C° 0 mm 1 mps 679 mmHg 79%
    07:00 +19°C° 0 mm 1 mps 679 mmHg 77%
    08:00 +22°C° 0 mm 1 mps 680 mmHg 68%
    09:00 +25°C° 0 mm 1 mps 680 mmHg 59%
    10:00 +25°C° 0 mm 0 mps 681 mmHg 50%
    11:00 +28°C° 0 mm 1 mps 680 mmHg 48%
    12:00 +28°C° 0 mm 1 mps 680 mmHg 47%
    13:00 +29°C° 0 mm 1 mps 680 mmHg 45%
    14:00 +28°C° 0.4 mm 1 mps 680 mmHg 52%
    15:00 +27°C° 0.4 mm 1 mps 679 mmHg 60%
    16:00 +26°C° 0.4 mm 1 mps 679 mmHg 67%
    17:00 +24°C° 1 mm 1 mps 678 mmHg 74%
    18:00 +22°C° 1 mm 1 mps 678 mmHg 81%
    19:00 +18°C° 1 mm 0 mps 678 mmHg 88%
    20:00 +19°C° 0.5 mm 1 mps 678 mmHg 89%
    21:00 +18°C° 0.5 mm 1 mps 678 mmHg 89%
    22:00 +18°C° 0.5 mm 1 mps 678 mmHg 90%
    23:00 +18°C° 0 mm 1 mps 678 mmHg 90%

    29 August, Thursday

    Time Temperature Precipitation Wind Pressure Humidity
    00:00 +16°C° 0 mm 1 mps 678 mmHg 90%
    01:00 +16°C° 0 mm 2 mps 677 mmHg 89%
    02:00 +16°C° 0.1 mm 1 mps 677 mmHg 89%
    03:00 +16°C° 0.1 mm 1 mps 677 mmHg 89%
    04:00 +15°C° 0.1 mm 1 mps 677 mmHg 89%
    05:00 +16°C° 0.4 mm 1 mps 677 mmHg 88%
    06:00 +18°C° 0.4 mm 1 mps 678 mmHg 88%
    07:00 +19°C° 0.4 mm 1 mps 678 mmHg 87%
    08:00 +20°C° 0.4 mm 1 mps 678 mmHg 83%
    09:00 +22°C° 0.4 mm 1 mps 679 mmHg 79%
    10:00 +23°C° 0.4 mm 1 mps 679 mmHg 75%
    11:00 +23°C° 1.2 mm 1 mps 679 mmHg 76%
    12:00 +23°C° 1.2 mm 1 mps 679 mmHg 78%
    13:00 +24°C° 1.2 mm 1 mps 679 mmHg 79%
    14:00 +23°C° 1.2 mm 1 mps 679 mmHg 82%
    15:00 +23°C° 1.2 mm 1 mps 679 mmHg 84%
    16:00 +21°C° 1.2 mm 2 mps 679 mmHg 87%
    17:00 +21°C° 0.7 mm 1 mps 679 mmHg 89%
    18:00 +20°C° 0.7 mm 1 mps 679 mmHg 92%
    19:00 +16°C° 0.7 mm 0 mps 679 mmHg 95%
    20:00 +18°C° 0.5 mm 1 mps 679 mmHg 95%
    21:00 +18°C° 0.5 mm 1 mps 680 mmHg 95%
    22:00 +18°C° 0.5 mm 1 mps 680 mmHg 95%
    23:00 +16°C° 0 mm 1 mps 680 mmHg 95%

    30 August, Friday

    Time Temperature Precipitation Wind Pressure Humidity
    00:00 +16°C° 0 mm 1 mps 680 mmHg 94%
    01:00 +15°C° 0 mm 0 mps 680 mmHg 94%
    02:00 +14°C° 0 mm 0 mps 680 mmHg 94%
    03:00 +14°C° 0 mm 0 mps 680 mmHg 94%
    04:00 +14°C° 0 mm 0 mps 680 mmHg 95%
    05:00 +14°C° 0 mm 0 mps 680 mmHg 94%
    06:00 +15°C° 0 mm 0 mps 681 mmHg 94%
    07:00 +15°C° 0 mm 0 mps 681 mmHg 93%
    08:00 +17°C° 0.2 mm 0 mps 681 mmHg 90%
    09:00 +20°C° 0.2 mm 1 mps 681 mmHg 86%
    10:00 +21°C° 0.2 mm 1 mps 682 mmHg 83%
    11:00 +21°C° 0.9 mm 1 mps 682 mmHg 83%
    12:00 +22°C° 0.9 mm 1 mps 681 mmHg 83%
    13:00 +22°C° 0.9 mm 1 mps 681 mmHg 84%
    14:00 +21°C° 1 mm 1 mps 681 mmHg 85%
    15:00 +21°C° 1 mm 1 mps 681 mmHg 87%
    16:00 +21°C° 1 mm 1 mps 680 mmHg 89%
    17:00 +20°C° 0.5 mm 1 mps 680 mmHg 92%
    18:00 +17°C° 0.5 mm 0 mps 680 mmHg 94%
    19:00 +16°C° 0.5 mm 0 mps 680 mmHg 96%
    20:00 +15°C° 0 mm 0 mps 680 mmHg 96%
    21:00 +16°C° 0 mm 1 mps 680 mmHg 95%
    22:00 +15°C° 0 mm 1 mps 680 mmHg 95%
    23:00 +15°C° 0 mm 1 mps 680 mmHg 94%
    Show more